Other Surface Observations
Issued by NWS

Home | Current Version | Previous Version | Text Only | Print | Product List | Glossary On
Versions: 1 2 3 4 5 6 7 8 9 10 11 12 13 14 15 16 17 18 19 20 21 22 23 24 25 26 27 28 29 30 31 32 33 34 35 36 37 38 39 40 41 42 43 44 45 46 47 48 49 50
000
SXUS52 KTAE 220505
OSOTAE
OSOTAE
North Florida/South Alabama/Southwest Georgia Weather Roundup
National Weather Service Tallahassee Florida
100 AM EDT WED OCT 22 2014

Note: "fair" indicates few or no clouds below 12,000 feet with no
significant weather and/or obstructions to visibility.

!FLZ017-115-028-034-025-220600
...North Florida...

CITY           SKY/WX    TMP DP  RH WIND       PRES   REMARKS
TALLAHASSEE    NOT AVBL
APALACHICOLA   CLEAR     64  58  80 CALM      29.98F
PERRY          CLEAR     55  55 100 CALM      29.98F FOG
CROSS CITY       N/A     65  60  84 N3        29.97F
JACKSONVILLE   CLEAR     61  61 100 CALM      29.96S
$$

!FLZ112-006-005-002-011-220600
...Florida Panhandle...

CITY           SKY/WX    TMP DP  RH WIND       PRES   REMARKS
MARIANNA       LGT RAIN  57  57 100 CALM      30.00F
BONIFAY        NOT AVBL
PANAMA CITY NW FAIR      57  53  86 CALM      29.99F
TYNDALL AFB    CLEAR     59  57  92 CALM      30.00F
TYND DRONE APT FAIR      59  59  99 MISG      29.98F
DE FUNIAK SPR  FAIR      58  55  89 N7        30.01F
EGLIN AFB      CLEAR     61  53  75 N2        30.01F
DESTIN         CLEAR     67  58  72 N5        30.00F
HURLBURT       CLEAR     58  52  81 N8        30.00F
CRESTVIEW      CLEAR     52  51  97 CALM      30.03F
PENSACOLA      CLEAR     61  55  81 N3        30.01F
$$

!ALZ063-066-220600
...South Alabama...

CITY           SKY/WX    TMP DP  RH WIND       PRES   REMARKS
DOTHAN         CLEAR     55  53  93 NW3       30.04F
OZARK CAIRNS   CLEAR     57  54  89 NW1       30.01F
FT RUCKER HELI CLEAR     54  52  93 CALM      30.01F
RUCKER HELI 3  FAIR      55  53  95 NW2       30.04F
RUCKER HELI 2  FAIR      55  52  89 N5        30.01F
FLORALA APT    CLEAR     54  51  90 CALM      30.04S
ANDALUSIA      CLEAR     60  53  77 CALM      30.02F
TROY           CLEAR     53  51  93 CALM      30.04S
EUFALA         FAIR      54  52  93 CALM      30.01F
MOBILE         CLEAR     58  55  90 N3        30.03S
$$

!GAZ120>161-220600
...Southwest and South Central Georgia...

CITY           SKY/WX    TMP DP  RH WIND       PRES   REMARKS
THOMASVILLE    FAIR      57  57 100 CALM      30.01S
BAINBRIDGE     CLEAR     59  55  88 CALM      30.00F
MOODY AFB      CLEAR     59  55  84 W1        29.98F
VALDOSTA       CLEAR     55  50  83 CALM      29.99F
MOULTRIE       CLEAR     59  57  94 CALM      30.00F
BLAKELY        CLEAR     54  54 100 CALM        N/A
ALBANY         CLEAR     57  54  89 CALM      30.02F
TIFTON         FAIR      60  53  77 N3        29.99S
FITZGERALD     FAIR      56  54  91 NW5       30.02S
CORDELE        FAIR      56  53  91 CALM      30.02S
AMERICUS       FAIR      54  54 100 CALM      30.03S
HOMERVILLE     FAIR      55  55 100 CALM      29.99S
$$

!GMZ750-755-770-775-220600
...Coastal and Buoy Obs...

STATION/POSITION TIME  TEMP    WIND        PRES    VSBY  WAVE
                       AIR SEA DIR/SP/G                  HT/PER
                 (UTC) (F)     (DEG/KT/KT) (MB)    (MI)  (FT/S)
KEATON BEACH     0500   69     350/  2/  3 1015.2F
CEDAR KEY        0400   71     350/  4/  6 1015.4F
C TOWER          0500   75     360/ 10/ 11 1014.8F
APALACHICOLA BUO 0400   76 81  360/  6/  8 1015.1F         1/ 4
PANAMA CITY BUOY 0347   76 81   50/  6/ 10 1015.8F         1/ 3
MOBILE BUOY      0433   76 79   40/ 12/ 14 1016.4F         1/ 5
ORANGE BCH AL BU 0400   75 78   30/ 12/ 16 1016.1R         1/ 5
$$



USA.gov is the U.S. government's official web portal to all federal, state and local government web resources and services.